Location: Casilda
(33.0440°S, 61.1680°W)
Time: 20:50:51
(UTC-03:00)

ISS - Pass Details

Date: 25 January 2023
Orbit: 413 x 419 km, 51.6° (Epoch: 30 January)

Event Time Altitude Azimuth Distance (km) Brightness Sun altitude
Exits shadow 03:36:33 18° 116° (ESE) 1,110 -1.0 -28.2°
Drops below altitude 10° 03:37:34 10° 123° (ESE) 1,505 -0.1 -28.0°
Sets 03:39:43 0° 128° (SE) 2,374 1.3 -27.8°
